"Pseudo-MPEC" for TTT0000

Created 2024 Oct 25 18:31:30 UT using Find_Orb

Click here for an explanation of pseudo-MPECs

 
 Astrometry: 
     TTT0000*KC2024 09 13.19524 03 03 06.10 -04 42 36.1    ~9P1Mx22.5 VqNEOCPY65
     TTT0000 KC2024 09 13.20828 03 03 04.01 -04 42 54.1    ~9P1M 22.7 VqNEOCPY65
     TTT0000 KC2024 09 13.22092 03 03 02.02 -04 43 12.1    ~9P1M 22.8 VqNEOCPY65
     TTT0000 KB2024 09 16.14991 02 54 30.68 -05 58 14.7    ~9P1M 22.1 VqNEOCPY64
     TTT0000 KB2024 09 16.16146 02 54 28.36 -05 58 36.0    ~9P1M 21.0 VqNEOCPY64
     TTT0000 KB2024 09 16.17326 02 54 26.15 -05 58 55.2    ~9P1M 21.3 VqNEOCPY64

Station data:
(Y64) Transient Survey Telescope (TST), Teide  (N28.298930 W16.510390)
   Canary Islands (Spain).
(Y65) Two-Meter Twin Telescope, TTT1, Teide  (N28.298728 W16.509580)  Canary
   Islands (Spain).

Orbital elements:  TTT0000
   Perihelion 2025 Jan 11.65197 TT = 15:38:50 (JD 2460687.15197)
Epoch 2024 Sep 16.0 TT = JDT 2460569.5   Earth MOID: 0.0136   Ma: 0.0989
M 225.81990300                      (J2000 ecliptic)             AutoNEOCP
n   1.14048324     Peri.  161.20034
a   0.90728439     Node     4.10229
e   0.9258348      Incl.  130.32363
P   0.864/315.650d H   19.96    G   0.15   q 0.06728884  Q 1.74727995
5 of 6 observations 2024 Sept. 13-16; mean residual 0".80
Residuals in arcseconds: 
240913 Y65( 1.4-  1.2-)   240913 Y65  .64+  .20+    240916 Y64  .80-  .83-    
240913 Y65  .64-  .21-    240916 Y64  .51+  1.7+    240916 Y64  .29+  .90-    

Ephemerides (geocentric):
Date (UTC) HH   RA             Dec           delta  r     elong  mag
---- --------  ------------   ------------  ------ ------ -----  ---
2024 10 25 19  22 39 38.433   -23 14 23.58  .66824 1.4432 119.2 21.4
2024 10 25 20  22 39 22.928   -23 14 21.78  .66863 1.4429 119.1 21.4
2024 10 25 21  22 39 07.448   -23 14 19.84  .66902 1.4426 119.0 21.4
2024 10 25 22  22 38 51.991   -23 14 17.75  .66941 1.4422 118.9 21.4
2024 10 25 23  22 38 36.559   -23 14 15.53  .66981 1.4419 118.8 21.4
2024 10 26 00  22 38 21.150   -23 14 13.17  .67020 1.4416 118.7 21.4
2024 10 26 01  22 38 05.766   -23 14 10.67  .67059 1.4412 118.6 21.4
2024 10 26 02  22 37 50.406   -23 14 08.03  .67099 1.4409 118.6 21.4
2024 10 26 03  22 37 35.070   -23 14 05.26  .67138 1.4405 118.5 21.4
2024 10 26 04  22 37 19.758   -23 14 02.35  .67178 1.4402 118.4 21.4
2024 10 26 05  22 37 04.470   -23 13 59.30  .67217 1.4399 118.3 21.4
2024 10 26 06  22 36 49.207   -23 13 56.12  .67257 1.4395 118.2 21.4
2024 10 26 07  22 36 33.967   -23 13 52.80  .67297 1.4392 118.1 21.4
2024 10 26 08  22 36 18.752   -23 13 49.34  .67337 1.4388 118.0 21.4
2024 10 26 09  22 36 03.561   -23 13 45.76  .67377 1.4385 117.9 21.4
2024 10 26 10  22 35 48.394   -23 13 42.04  .67417 1.4382 117.8 21.4
2024 10 26 11  22 35 33.252   -23 13 38.18  .67457 1.4378 117.7 21.4
2024 10 26 12  22 35 18.133   -23 13 34.20  .67497 1.4375 117.7 21.4
2024 10 26 13  22 35 03.039   -23 13 30.08  .67537 1.4371 117.6 21.4
2024 10 26 14  22 34 47.969   -23 13 25.83  .67578 1.4368 117.5 21.4
2024 10 26 15  22 34 32.923   -23 13 21.45  .67618 1.4365 117.4 21.4
2024 10 26 16  22 34 17.902   -23 13 16.94  .67658 1.4361 117.3 21.4
2024 10 26 17  22 34 02.904   -23 13 12.30  .67699 1.4358 117.2 21.4
2024 10 26 18  22 33 47.931   -23 13 07.53  .67740 1.4354 117.1 21.4
2024 10 26 19  22 33 32.982   -23 13 02.64  .67780 1.4351 117.0 21.4
2024 10 26 20  22 33 18.057   -23 12 57.61  .67821 1.4347 116.9 21.4
2024 10 26 21  22 33 03.157   -23 12 52.46  .67862 1.4344 116.8 21.4
2024 10 26 22  22 32 48.280   -23 12 47.18  .67903 1.4341 116.8 21.4
2024 10 26 23  22 32 33.428   -23 12 41.77  .67944 1.4337 116.7 21.4
2024 10 27 00  22 32 18.600   -23 12 36.23  .67985 1.4334 116.6 21.4
2024 10 27 01  22 32 03.796   -23 12 30.58  .68026 1.4330 116.5 21.4
2024 10 27 02  22 31 49.017   -23 12 24.79  .68067 1.4327 116.4 21.4
2024 10 27 03  22 31 34.262   -23 12 18.88  .68108 1.4323 116.3 21.4
2024 10 27 04  22 31 19.531   -23 12 12.85  .68150 1.4320 116.2 21.4
2024 10 27 05  22 31 04.824   -23 12 06.69  .68191 1.4317 116.1 21.4
2024 10 27 06  22 30 50.141   -23 12 00.42  .68233 1.4313 116.0 21.4
2024 10 27 07  22 30 35.483   -23 11 54.01  .68274 1.4310 116.0 21.4
2024 10 27 08  22 30 20.849   -23 11 47.49  .68316 1.4306 115.9 21.5
2024 10 27 09  22 30 06.239   -23 11 40.85  .68357 1.4303 115.8 21.5
2024 10 27 10  22 29 51.653   -23 11 34.08  .68399 1.4299 115.7 21.5
2024 10 27 11  22 29 37.092   -23 11 27.19  .68441 1.4296 115.6 21.5
2024 10 27 12  22 29 22.554   -23 11 20.19  .68483 1.4292 115.5 21.5
2024 10 27 13  22 29 08.041   -23 11 13.06  .68525 1.4289 115.4 21.5
2024 10 27 14  22 28 53.553   -23 11 05.82  .68567 1.4285 115.3 21.5
2024 10 27 15  22 28 39.088   -23 10 58.46  .68609 1.4282 115.2 21.5
2024 10 27 16  22 28 24.647   -23 10 50.98  .68651 1.4278 115.2 21.5
2024 10 27 17  22 28 10.231   -23 10 43.38  .68693 1.4275 115.1 21.5
2024 10 27 18  22 27 55.839   -23 10 35.66  .68735 1.4272 115.0 21.5